Temp
52 51 50 48 46 46 45 45 44 44 45 46 46 46 46 46 46 45 46 46 47 48 49 49 49 51 50 50 52 52 53 55 55 53 60 63 65 66 67 70 71 73 74
50 49 48 46 45 45 45 44 44 44 46 47 47 47 46 45 45 44 43 45 46 46 48 48 47 49 50 50 50 50 50 53 53 51 54 56 62 65 67 69 70 71 74
48 48 43 45 45 45 45 44 44 44 45 45 44 44 44 44 44 44 44 42 45 44 45 46 47 47 48 47 48 47 47 48 52 53 50 53 55 55 65 67 69 69 70
45 48 43 37 41 43 45 44 43 43 44 45 45 45 45 43 43 43 43 42 43 43 44 45 46 46 47 46 47 48 47 48 48 51 53 52 51 50 53 63 64 65 66
40 43 43 36 39 36 39 42 42 43 42 43 45 45 44 43 43 43 42 42 42 43 42 43 44 44 45 45 45 46 46 47 47 47 47 50 52 53 50 50 56 60 64
36 40 46 38 34 34 35 38 36 37 38 40 43 43 43 43 42 42 42 42 42 42 42 42 43 44 43 43 44 45 45 45 45 47 47 46 47 49 48 49 51 50 55
34 37 43 37 33 33 33 33 34 33 33 35 39 40 42 42 42 42 41 41 41 41 41 41 42 42 42 42 43 43 43 44 43 45 46 47 47 48 47 46 46 47 52
33 36 42 40 35 33 33 32 32 31 32 32 34 38 40 41 41 40 41 41 40 40 40 40 41 41 41 41 42 42 43 43 44 44 44 44 46 47 46 45 43 42 48
31 33 37 39 35 33 32 32 32 31 31 32 32 34 38 38 39 39 40 40 40 40 39 40 39 40 40 40 41 41 42 42 43 43 43 43 44 45 45 46 45 42 40
32 32 34 35 34 33 32 32 32 31 31 31 31 32 33 37 38 38 37 37 38 38 38 38 38 39 39 39 40 41 42 41 42 43 42 42 43 44 44 44 44 44 41
31 31 32 33 33 33 31 31 31 31 30 30 31 30 31 33 36 36 37 36 36 36 36 37 37 38 38 39 38 39 40 39 40 41 41 41 42 42 43 43 43 42 42
31 31 32 33 33 33 33 32 32 31 31 30 31 29 30 30 32 34 35 36 34 35 35 36 36 37 37 38 37 37 38 38 38 39 40 40 43 41 42 42 41 41 43
30 31 31 31 31 32 33 33 33 33 32 32 30 29 29 28 29 32 33 33 33 33 35 35 35 36 36 36 37 37 37 38 38 39 39 39 40 39 40 41 40 41 43
28 28 29 30 32 31 31 32 33 33 33 32 30 28 28 27 28 30 31 30 31 30 32 34 34 35 35 36 36 37 36 37 38 38 38 38 39 39 39 40 40 41 40
29 29 29 29 30 31 32 32 33 33 32 31 29 28 28 28 27 27 26 28 29 29 29 31 32 34 34 36 35 35 35 36 36 38 39 39 40 40 40 39 38 38 37
29 30 31 31 31 31 31 32 32 32 32 30 29 29 28 27 25 25 24 25 26 26 27 28 29 30 33 35 34 34 34 36 36 36 38 39 39 39 40 40 41 40 36
28 29 30 31 32 33 33 31 32 33 30 28 27 28 26 25 23 22 22 21 23 26 25 26 28 28 31 33 33 34 34 35 35 36 36 37 40 39 39 39 40 40 40
28 29 30 32 34 36 35 35 34 33 31 28 27 26 25 23 23 21 20 21 24 24 24 26 27 27 29 32 32 33 33 34 35 36 36 36 36 37 37 36 35 35 36
29 29 31 33 35 35 36 35 34 33 33 31 29 28 23 22 22 20 20 22 24 25 26 27 25 25 26 31 32 32 31 32 34 36 36 36 35 37 37 34 31 32 34
30 29 30 31 33 35 35 33 32 32 32 33 33 31 26 22 22 22 22 24 25 25 27 27 26 26 24 30 31 31 30 29 31 33 34 36 36 36 35 31 30 28 31
27 28 28 28 30 33 33 31 31 31 33 35 35 34 31 25 24 23 25 24 23 26 25 25 26 25 25 25 31 32 29 28 28 29 30 32 33 33 33 33 30 29 32
24 25 25 26 29 31 31 29 29 33 34 34 33 33 34 30 27 24 24 24 23 23 23 23 25 27 27 30 31 32 33 32 26 25 26 27 30 31 31 31 31 32 32
22 23 23 23 26 28 29 27 30 31 31 31 31 31 33 32 30 24 23 23 23 24 23 24 24 27 29 29 31 32 32 31 26 25 27 27 28 29 28 28 30 29 27
18 20 20 20 21 25 26 27 28 29 29 28 28 29 31 32 31 29 26 24 24 23 26 26 26 27 28 28 29 29 28 29 26 25 21 24 25 26 25 23 23 23 24
16 17 17 17 19 22 23 25 26 27 25 26 27 28 29 30 30 30 28 26 27 27 26 27 28 26 26 28 30 28 26 25 24 21 19 19 19 18 18 19 18 19 19
14 13 14 15 16 18 19 21 24 24 22 22 25 27 28 29 29 29 28 32 32 33 33 33 31 30 31 31 29 28 26 26 24 22 17 15 15 15 16 16 16 17 18
MSLP
1014.93 1016.09 1017.17 1018.37 1019.09 1019.73 1020.15 1020.73 1020.82 1021.14 1021.45 1021.42 1021.30 1021.53 1021.90 1022.10 1022.28 1022.72 1022.72 1022.77 1022.72 1022.43 1022.25 1022.41 1022.24 1022.21 1022.25 1022.07 1022.10 1021.64 1021.39 1020.83 1020.85 1020.18 1018.99 1018.35 1018.16 1018.10 1017.98 1017.84 1017.65 1017.61 1017.60
1015.00 1016.19 1017.32 1018.39 1019.18 1019.76 1020.27 1020.64 1021.00 1021.26 1021.43 1021.54 1021.60 1021.71 1022.01 1022.30 1022.69 1023.26 1023.22 1023.15 1022.99 1023.01 1022.71 1022.64 1022.64 1022.62 1022.27 1022.29 1022.34 1022.33 1021.85 1021.45 1021.36 1021.04 1019.98 1018.73 1018.15 1017.87 1017.75 1017.61 1017.54 1017.49 1017.39
1015.34 1016.28 1017.65 1018.33 1019.03 1019.67 1020.20 1020.54 1021.17 1021.35 1021.75 1021.83 1022.05 1022.19 1022.45 1022.70 1022.70 1023.06 1023.30 1023.48 1023.43 1023.54 1023.30 1023.02 1023.05 1022.92 1022.84 1022.55 1022.78 1023.01 1022.76 1022.10 1021.76 1021.64 1021.25 1020.09 1019.00 1018.67 1017.97 1017.75 1017.55 1017.66 1017.68
1016.42 1016.48 1017.65 1018.65 1019.37 1019.79 1020.16 1020.77 1021.32 1021.55 1021.85 1021.94 1022.04 1022.03 1022.04 1022.12 1022.68 1023.09 1023.54 1023.81 1023.63 1023.73 1023.81 1023.64 1023.61 1023.31 1023.32 1023.33 1023.03 1023.32 1023.17 1022.86 1022.33 1021.96 1021.91 1021.72 1021.27 1020.12 1018.95 1018.23 1018.25 1018.77 1018.44
1017.73 1017.21 1017.54 1019.09 1019.76 1020.41 1020.69 1021.23 1021.59 1021.89 1022.21 1022.31 1022.24 1022.31 1022.48 1022.67 1022.95 1023.23 1023.64 1023.72 1023.85 1024.20 1024.03 1024.20 1023.96 1023.68 1023.67 1023.74 1023.90 1023.66 1023.63 1023.20 1023.24 1022.89 1022.59 1022.20 1021.57 1021.30 1020.75 1019.67 1018.93 1019.20 1019.04
1018.45 1017.92 1017.59 1019.18 1020.36 1021.00 1021.36 1021.69 1021.97 1022.46 1022.71 1022.68 1022.79 1022.77 1022.89 1022.92 1023.08 1023.27 1023.52 1023.70 1023.86 1024.18 1024.41 1024.36 1024.36 1024.19 1024.28 1024.22 1024.18 1024.24 1023.90 1023.78 1023.69 1023.63 1023.31 1023.04 1022.52 1021.84 1021.83 1021.09 1020.41 1020.51 1020.03
1018.85 1018.30 1017.85 1019.24 1020.58 1021.23 1021.66 1022.04 1022.47 1023.00 1023.33 1023.41 1023.24 1023.29 1023.08 1023.22 1023.37 1023.32 1023.63 1023.76 1023.93 1024.26 1024.65 1024.60 1024.74 1024.67 1024.64 1024.54 1024.55 1024.28 1024.18 1024.13 1024.13 1024.18 1023.55 1023.48 1023.21 1022.93 1022.83 1022.47 1022.01 1021.41 1020.45
1019.28 1018.75 1018.25 1019.15 1020.58 1021.34 1021.85 1022.37 1022.86 1023.41 1023.76 1023.91 1023.93 1023.96 1023.89 1023.79 1023.77 1023.97 1024.19 1024.14 1024.38 1024.79 1025.09 1024.95 1024.95 1024.87 1024.81 1024.70 1024.76 1024.45 1024.49 1024.47 1024.42 1024.26 1023.86 1023.60 1023.42 1023.59 1023.43 1023.20 1022.99 1022.00 1021.09
1020.02 1019.76 1019.54 1019.68 1020.69 1021.46 1022.08 1022.55 1023.02 1023.50 1023.86 1024.05 1024.31 1024.38 1024.26 1024.15 1024.37 1024.49 1024.58 1024.61 1024.67 1025.11 1025.09 1025.04 1024.96 1024.93 1024.88 1024.91 1024.80 1024.70 1024.46 1024.31 1024.25 1024.03 1023.91 1023.91 1023.91 1024.01 1023.75 1023.71 1023.53 1023.09 1022.10
1020.63 1020.41 1020.37 1020.55 1021.08 1021.69 1022.23 1022.79 1023.21 1023.53 1023.87 1024.12 1024.40 1024.55 1024.64 1024.64 1024.76 1024.79 1024.72 1024.75 1024.84 1025.26 1025.02 1025.38 1024.98 1025.04 1024.99 1025.05 1024.93 1024.60 1024.33 1024.45 1024.25 1024.14 1024.01 1024.16 1024.05 1023.92 1023.88 1023.94 1023.68 1023.52 1023.09
1021.33 1021.26 1021.12 1021.28 1021.59 1022.03 1022.43 1022.81 1023.20 1023.56 1023.96 1024.26 1024.50 1024.68 1024.80 1024.89 1024.80 1024.67 1024.59 1024.77 1025.21 1025.35 1025.44 1025.32 1024.98 1025.03 1025.01 1025.01 1024.96 1024.65 1024.56 1024.50 1024.29 1024.00 1024.35 1024.03 1023.94 1023.99 1023.97 1023.83 1023.66 1023.43 1023.22
1022.15 1021.96 1021.78 1021.87 1022.03 1022.26 1022.62 1023.01 1023.33 1023.59 1023.88 1024.15 1024.39 1024.65 1024.84 1024.89 1024.80 1024.76 1024.87 1025.11 1025.29 1025.34 1025.30 1025.09 1025.09 1025.06 1025.00 1025.02 1024.84 1024.71 1024.54 1024.46 1024.33 1024.27 1024.19 1023.79 1023.72 1023.86 1023.86 1023.65 1023.48 1023.29 1022.98
1022.75 1022.59 1022.54 1022.55 1022.66 1022.70 1022.78 1022.94 1023.13 1023.29 1023.49 1023.76 1024.05 1024.24 1024.43 1024.64 1024.76 1024.89 1025.04 1025.19 1025.26 1025.28 1025.26 1025.26 1025.28 1025.23 1025.17 1025.01 1024.76 1024.69 1024.67 1024.65 1024.51 1024.32 1023.97 1023.77 1023.69 1023.64 1023.47 1023.31 1023.16 1022.94 1022.60
1023.39 1023.28 1023.21 1023.22 1023.13 1023.12 1023.10 1022.97 1022.97 1023.03 1023.16 1023.38 1023.69 1023.91 1024.18 1024.43 1024.65 1024.84 1025.05 1025.29 1025.38 1025.53 1025.48 1025.29 1025.29 1025.17 1025.00 1024.81 1024.78 1024.77 1024.74 1024.60 1024.32 1024.06 1023.82 1023.62 1023.41 1023.28 1023.11 1022.92 1022.71 1022.48 1022.33
1023.46 1023.47 1023.50 1023.48 1023.37 1023.20 1023.15 1023.06 1023.02 1022.97 1023.03 1023.06 1023.30 1023.52 1023.79 1024.09 1024.44 1024.74 1024.97 1025.20 1025.31 1025.40 1025.51 1025.37 1025.18 1025.06 1024.97 1024.66 1024.72 1024.74 1024.57 1024.24 1023.90 1023.61 1023.29 1023.03 1022.98 1022.95 1022.95 1022.85 1022.62 1022.53 1022.32
1023.58 1023.61 1023.51 1023.41 1023.28 1023.16 1023.02 1022.91 1022.83 1022.79 1022.86 1022.90 1022.95 1023.13 1023.39 1023.70 1024.03 1024.42 1024.80 1025.01 1025.14 1025.24 1025.32 1025.28 1025.16 1025.01 1024.71 1024.53 1024.70 1024.58 1024.20 1023.79 1023.40 1023.03 1022.76 1022.57 1022.49 1022.48 1022.40 1022.28 1022.21 1022.14 1021.89
1023.62 1023.60 1023.47 1023.21 1023.01 1022.81 1022.69 1022.58 1022.45 1022.35 1022.44 1022.47 1022.57 1022.75 1023.05 1023.40 1023.77 1024.18 1024.53 1024.73 1024.84 1024.92 1024.95 1024.98 1024.89 1024.71 1024.52 1024.38 1024.28 1024.01 1023.68 1023.27 1022.92 1022.63 1022.41 1022.24 1022.03 1021.95 1021.92 1021.80 1021.63 1021.48 1021.41
1023.79 1023.64 1023.33 1022.95 1022.53 1022.33 1022.21 1022.11 1022.06 1022.00 1021.93 1021.98 1022.11 1022.30 1022.49 1022.86 1023.22 1023.66 1024.00 1024.28 1024.44 1024.54 1024.61 1024.61 1024.62 1024.49 1024.28 1024.07 1023.92 1023.62 1023.30 1022.92 1022.53 1022.30 1022.11 1021.96 1021.85 1021.78 1021.68 1021.57 1021.40 1021.32 1021.28
1023.86 1023.51 1023.09 1022.56 1022.07 1021.86 1021.84 1021.64 1021.52 1021.39 1021.26 1021.21 1021.37 1021.56 1021.93 1022.30 1022.63 1023.00 1023.37 1023.66 1023.94 1024.02 1024.05 1024.20 1024.31 1024.29 1024.16 1023.91 1023.67 1023.50 1023.18 1022.72 1022.32 1022.02 1021.93 1021.86 1021.76 1021.67 1021.54 1021.56 1021.47 1021.11 1020.77
1023.81 1023.60 1023.19 1022.56 1021.83 1021.50 1021.39 1021.32 1021.07 1020.82 1020.54 1020.35 1020.25 1020.52 1021.08 1021.56 1021.83 1022.07 1022.45 1022.83 1023.18 1023.35 1023.51 1023.60 1023.77 1023.79 1023.77 1023.60 1023.41 1023.26 1022.97 1022.56 1022.37 1022.07 1021.92 1021.81 1021.65 1021.56 1021.56 1021.61 1021.25 1020.72 1020.22
1024.10 1023.85 1023.41 1022.78 1022.15 1021.65 1021.28 1020.89 1020.65 1020.25 1020.01 1019.80 1019.68 1019.63 1019.90 1020.60 1020.91 1021.25 1021.60 1021.96 1022.49 1022.76 1022.92 1023.14 1023.31 1023.40 1023.41 1023.37 1023.11 1022.85 1022.64 1022.45 1022.38 1022.23 1022.10 1021.98 1021.79 1021.65 1021.46 1021.28 1021.14 1020.80 1020.37
1024.32 1024.06 1023.54 1022.96 1022.32 1021.78 1021.29 1020.68 1020.26 1019.84 1019.63 1019.41 1019.21 1019.06 1018.97 1019.47 1020.05 1020.44 1020.80 1021.29 1021.78 1022.19 1022.42 1022.77 1022.81 1022.76 1022.83 1022.83 1022.75 1022.46 1022.21 1022.21 1022.34 1022.41 1022.36 1022.27 1022.00 1021.63 1021.38 1021.13 1020.88 1020.44 1020.08
1024.74 1024.33 1023.80 1023.07 1022.46 1021.93 1021.34 1020.58 1020.01 1019.80 1019.53 1019.17 1018.87 1018.68 1018.41 1018.57 1019.15 1019.77 1020.12 1020.69 1021.08 1021.30 1021.68 1021.96 1022.11 1022.05 1022.06 1022.28 1022.21 1022.16 1022.11 1022.19 1022.28 1022.35 1022.27 1022.13 1021.80 1021.59 1021.34 1021.09 1020.72 1020.50 1020.04
1025.30 1024.76 1024.09 1023.38 1022.63 1022.03 1021.35 1020.72 1020.21 1019.89 1019.48 1019.07 1018.69 1018.47 1018.01 1017.80 1018.23 1018.79 1019.34 1019.63 1019.94 1020.41 1020.62 1020.90 1021.09 1021.33 1021.55 1021.76 1021.79 1021.85 1022.01 1022.10 1022.21 1022.21 1022.40 1022.14 1021.97 1021.78 1021.60 1021.41 1021.09 1020.77 1020.28
1025.64 1025.05 1024.37 1023.66 1022.82 1022.17 1021.44 1020.88 1020.39 1019.90 1019.35 1018.83 1018.38 1018.01 1017.63 1017.38 1017.42 1017.72 1018.22 1018.52 1018.61 1019.09 1019.57 1019.94 1020.29 1020.64 1021.03 1021.24 1021.48 1021.74 1021.92 1022.01 1022.21 1022.35 1022.36 1022.34 1022.27 1022.02 1021.82 1021.36 1020.95 1020.62 1020.26
1025.51 1024.99 1024.44 1023.72 1022.95 1022.28 1021.57 1020.94 1020.36 1019.85 1019.30 1018.65 1018.05 1017.49 1017.05 1016.89 1016.89 1017.05 1017.41 1017.65 1017.95 1018.36 1018.84 1019.31 1019.78 1020.26 1020.66 1021.00 1021.30 1021.57 1021.80 1021.93 1022.12 1022.12 1022.34 1022.44 1022.36 1022.21 1021.92 1021.52 1021.13 1020.70 1020.27
Wind_Speed
10 11 12 11 10 9 9 7 7 7 4 4 4 3 3 3 5 5 6 6 5 6 6 4 4 5 5 5 6 4 5 3 5 5 3 5 6 7 6 5 5 6 5
10 11 12 12 11 10 9 8 7 6 3 2 3 3 3 4 5 4 5 6 6 6 4 5 4 5 3 6 6 6 4 2 4 4 3 2 3 3 3 4 5 6 5
7 11 10 12 11 10 10 8 7 6 4 5 4 4 4 3 4 3 4 5 5 5 6 6 4 5 4 4 5 6 6 4 2 5 3 2 1 3 2 3 3 4 4
8 9 12 2 8 7 9 8 7 6 6 3 3 3 1 4 4 4 3 4 5 5 5 5 4 4 4 4 4 4 4 5 3 2 3 3 3 3 2 1 2 3 4
8 10 12 8 8 3 6 7 7 6 5 3 3 2 4 5 3 3 3 4 4 4 5 5 4 5 4 4 4 4 4 3 3 3 3 3 2 2 2 3 2 4 2
9 9 8 11 7 5 5 7 4 7 5 4 4 4 4 4 4 3 3 3 2 3 4 4 4 4 3 4 4 4 3 4 3 3 3 3 3 3 3 3 4 5 5
9 7 11 12 10 10 8 7 7 6 4 3 5 4 5 4 4 3 3 2 2 2 4 3 4 3 4 4 4 3 3 3 4 4 3 2 3 3 3 4 5 4 4
11 7 6 11 9 8 9 8 7 7 5 4 3 3 3 2 3 3 2 3 2 2 3 3 3 3 3 3 3 3 2 3 3 4 4 3 3 3 4 4 5 4 4
11 7 4 3 8 9 7 6 6 5 4 4 3 2 2 2 2 2 2 1 2 1 2 3 3 4 4 4 4 3 4 3 4 4 4 4 4 4 4 4 4 4 4
12 9 3 2 6 7 7 6 5 5 4 4 3 2 1 1 1 1 1 1 1 1 2 3 3 3 3 4 4 4 3 4 4 3 4 5 4 4 4 4 5 5 6
12 9 7 4 5 6 5 5 5 5 4 4 4 4 4 4 3 2 1 1 1 1 2 3 3 3 3 3 4 5 5 6 6 5 6 6 6 5 5 4 5 5 6
11 10 8 7 5 4 4 3 3 4 5 5 6 5 5 5 5 4 4 3 3 2 3 3 3 3 4 4 5 5 6 7 7 7 7 8 6 7 7 6 7 7 8
11 10 10 10 8 6 3 1 2 4 4 6 6 6 6 6 6 5 5 4 4 3 3 3 3 4 4 4 5 6 6 7 8 8 8 8 8 8 6 7 7 6 7
9 9 9 8 7 5 6 5 4 3 3 5 6 6 7 7 6 6 6 5 4 4 4 4 3 4 4 5 5 6 6 7 8 8 8 9 9 9 9 8 8 8 8
7 7 7 7 6 6 5 3 4 3 3 5 6 7 7 7 6 6 5 5 5 5 4 4 4 4 4 4 4 6 7 8 9 9 9 9 10 14 13 8 8 9 8
4 7 9 8 7 5 6 5 5 4 3 5 6 6 6 7 7 6 6 5 6 5 4 5 5 5 4 4 7 8 8 9 9 9 9 9 11 12 17 18 20 17 11
6 11 12 10 8 7 5 6 7 6 4 5 5 5 6 7 7 7 6 6 6 5 5 5 5 5 5 7 8 10 8 9 9 9 9 9 8 10 9 13 18 18 21
12 15 13 12 11 10 9 7 6 7 6 6 6 6 7 8 8 8 7 6 6 6 5 6 5 5 5 7 9 11 9 9 10 9 9 9 10 10 11 11 11 11 13
14 13 14 15 13 10 11 10 9 8 8 8 8 7 7 8 8 9 9 8 7 7 7 5 5 5 5 8 9 9 8 9 9 9 9 9 10 14 16 11 12 12 12
12 14 15 15 14 12 11 11 11 11 10 9 8 7 7 9 10 10 10 9 7 7 6 6 6 8 5 8 9 9 6 7 6 8 10 14 11 15 14 11 10 11 11
15 15 14 14 14 14 13 13 12 12 10 10 9 9 7 9 10 9 9 9 8 7 7 6 5 5 5 6 9 11 6 4 5 6 6 7 14 14 16 16 9 10 13
15 15 14 14 14 14 13 14 14 12 10 10 10 10 9 7 7 10 9 9 8 8 7 6 5 6 6 8 9 9 10 9 3 5 4 6 14 16 15 12 13 17 15
14 14 14 15 14 14 14 14 13 13 12 12 11 11 10 8 9 9 10 8 9 8 7 6 6 6 5 4 9 8 8 8 4 2 7 12 12 12 9 11 13 13 7
13 13 14 14 14 14 14 14 13 14 13 13 13 10 11 10 9 8 8 9 9 8 7 7 6 5 4 4 4 3 1 6 3 4 3 6 6 6 6 6 6 5 7
11 11 12 13 15 15 15 14 14 14 13 13 12 11 9 10 9 9 8 9 10 11 8 7 6 5 5 4 3 1 1 1 2 1 1 1 2 3 3 4 4 5 5
10 10 11 12 13 13 14 14 13 13 13 13 10 9 8 7 7 7 7 18 16 19 17 14 8 5 7 5 2 1 2 2 2 1 1 1 2 3 4 5 6 5 8
Wind_Direction
179 176 165 162 157 151 147 147 142 136 143 146 126 127 96 90 83 72 61 52 42 36 40 39 30 21 26 20 4 347 343 6 350 281 258 237 234 244 249 257 260 263 252
170 173 170 171 171 162 158 151 142 146 141 127 76 76 102 68 75 77 66 46 48 39 52 39 36 24 18 28 19 10 341 14 8 337 284 309 163 211 236 254 257 259 250
229 181 174 182 177 171 164 155 146 138 122 110 116 108 110 133 139 114 77 53 50 44 34 40 28 34 19 35 27 8 9 351 32 18 337 302 16 321 108 229 256 344 306
300 220 169 224 165 179 154 144 138 133 128 141 150 180 132 127 72 80 78 81 51 54 36 32 26 39 21 25 25 24 356 344 7 311 16 357 343 349 317 112 69 348 322
305 280 163 186 164 121 143 135 140 125 107 99 99 104 93 96 102 98 99 81 79 50 47 21 22 32 22 23 14 7 9 8 334 354 343 333 322 286 294 310 6 349 342
317 272 209 159 136 126 109 141 116 112 92 88 72 87 104 112 124 115 112 82 73 65 42 27 23 23 14 14 359 347 2 354 344 330 332 329 336 14 326 301 318 317 292
343 284 218 160 165 167 149 138 129 127 107 72 94 69 80 84 88 85 68 71 81 64 55 16 11 8 5 352 341 342 332 338 324 312 317 313 303 326 303 297 284 282 306
3 344 218 155 173 169 153 138 139 138 138 117 93 98 86 88 85 76 70 69 43 39 26 12 358 359 348 341 318 306 298 288 271 286 302 306 302 294 289 289 310 300 262
14 11 340 178 163 154 141 138 133 131 142 142 131 116 109 92 105 99 83 74 73 26 21 354 347 349 338 333 323 300 299 305 299 300 293 288 285 281 285 281 275 280 294
16 20 27 146 141 142 135 137 144 155 164 164 174 180 230 216 205 184 174 107 62 328 343 322 340 333 328 318 309 300 307 302 300 284 285 273 274 277 275 273 269 265 265
14 18 37 81 133 142 145 155 166 167 178 185 192 200 204 225 227 238 232 222 224 275 283 304 323 317 314 303 299 299 288 283 283 284 272 271 275 275 269 258 260 261 259
28 28 32 55 78 110 139 166 189 198 202 192 203 201 208 211 223 222 215 218 234 239 274 294 295 297 300 297 294 293 305 293 287 282 275 271 262 259 258 259 260 261 269
27 35 39 38 34 38 51 91 219 221 202 198 205 209 207 205 213 216 209 212 221 237 257 258 273 286 289 291 292 290 285 280 277 276 275 274 273 270 266 265 270 273 275
23 15 14 15 14 22 8 7 334 261 237 209 214 218 215 213 208 208 207 202 211 221 241 251 269 277 288 291 286 279 275 275 273 273 274 275 272 271 273 269 268 271 273
11 15 4 350 343 342 339 332 302 299 251 241 235 234 222 207 200 197 193 193 212 219 226 245 258 267 273 262 311 302 292 285 281 279 276 268 266 274 276 278 282 283 280
339 354 344 331 324 315 315 309 291 278 257 245 243 231 218 208 199 190 191 198 209 205 223 241 241 254 261 292 290 289 284 288 289 286 285 285 283 274 272 269 269 269 274
309 321 325 313 302 299 288 293 295 289 271 259 247 237 217 208 199 187 187 195 204 208 211 228 237 255 278 290 296 297 289 290 290 287 288 289 287 295 286 284 281 276 274
319 316 310 303 291 297 296 291 285 277 256 258 249 223 215 214 197 188 191 194 198 205 210 223 223 248 271 287 299 299 294 286 284 286 285 286 291 292 294 297 297 293 284
308 306 303 296 284 285 296 296 298 285 270 252 245 233 207 209 198 196 194 195 199 200 207 209 206 225 256 277 289 299 295 287 290 295 292 290 289 289 293 296 293 287 280
310 310 318 318 304 293 300 297 294 291 285 279 260 232 203 206 207 201 195 192 196 204 204 206 206 222 235 272 284 287 277 284 289 296 291 290 290 294 298 291 287 289 296
315 310 314 301 297 296 299 292 293 286 290 292 286 271 201 208 214 204 197 185 185 202 203 206 216 213 228 249 271 276 272 283 294 294 301 300 301 299 296 299 298 291 298
314 312 310 305 302 299 294 290 286 291 291 287 281 275 254 217 211 202 194 186 181 193 191 206 220 218 211 247 258 272 280 293 306 299 301 304 292 293 299 303 299 306 309
314 313 311 305 307 304 296 288 292 298 296 291 287 281 266 233 217 196 193 184 186 191 193 198 212 220 205 213 250 265 274 295 280 272 296 308 304 311 318 310 312 320 315
313 310 309 304 304 303 302 299 302 301 292 285 278 277 268 248 214 203 196 196 187 194 195 200 206 209 205 217 230 227 253 286 324 346 317 309 320 322 333 337 330 322 318
304 305 308 303 298 304 301 303 299 296 290 283 276 269 263 253 228 211 204 203 195 190 191 197 199 197 207 200 229 239 286 321 304 325 262 330 331 336 332 328 329 326 321
294 302 297 298 299 299 298 298 295 292 289 282 275 265 253 238 230 214 211 213 208 200 202 199 188 194 208 211 200 202 232 308 329 182 21 349 336 333 330 333 329 329 335